Location: Unnamed
(42.1164°N, 2.7652°E)
Time: 20:44:37
(UTC+02:00)

ISS - Pass Details

Date: 15 May 2021
Orbit: 417 x 422 km, 51.6° (Epoch: 14 June)

Event Time Altitude Azimuth Distance (km) Brightness Sun altitude
Rises 03:38:04 0° 307° (NW) 2,373 0.2 -23.7°
Reaches altitude 10° 03:40:24 10° 321° (NW) 1,508 -0.7 -23.5°
Maximum altitude 03:43:19 26° 20° (NNE) 861 -1.5 -23.2°
Drops below altitude 10° 03:46:15 10° 80° (E) 1,506 -0.4 -22.9°
Sets 03:48:34 0° 94° (E) 2,369 0.4 -22.7°
